RH
43 38 33 29 27 26 26 26 27 29 33 38 41 42 42 40 40 42 43 43 43 43 43 47 56 64 72 78 81 77 71 68 66 66 67 69 75 82 92 102 108 107 105 101 95 89 88 87 81 73 63 55 52 52 53 48 38 27 18 15 14 15 16 17 19 20 21 22 23 25 26 27 28 30 32 32 32 32 32 32 32 31 32 32 32 32 31 31
35 31 27 23 21 20 20 21 22 25 29 33 36 37 38 37 37 39 39 40 40 40 40 41 45 53 66 80 86 83 77 74 74 75 78 85 92 100 106 109 109 105 100 95 90 89 87 81 69 60 55 54 55 52 44 32 22 16 14 15 15 17 19 21 23 23 24 24 26 28 28 29 30 31 31 31 31 30 31 30 30 30 30 31 31 31 31 30
30 26 22 19 16 16 16 17 18 21 25 30 33 35 35 34 34 35 37 39 39 39 40 40 42 49 65 80 83 81 81 83 87 90 95 102 106 108 110 107 104 99 92 88 87 84 76 66 57 55 57 57 50 38 27 18 15 15 15 17 19 22 24 24 25 25 25 26 27 29 30 29 29 29 29 28 29 29 30 31 32 32 31 31 31 30 29 28
26 23 19 16 14 13 12 13 17 20 23 28 33 38 42 41 38 37 36 37 38 39 40 42 46 55 68 73 69 72 82 90 95 99 105 108 106 107 107 101 95 91 88 86 81 73 62 57 57 59 56 45 32 22 16 15 15 16 18 21 24 25 25 25 25 25 26 27 28 30 30 29 28 28 28 29 30 32 34 35 35 35 33 31 30 30 29 28
23 21 17 14 12 10 10 12 19 26 24 27 41 49 52 52 51 48 41 38 42 45 49 53 57 61 65 63 61 70 82 91 98 103 107 107 105 106 103 96 93 90 85 79 69 61 58 60 60 53 40 27 19 16 15 15 17 20 23 24 25 26 26 27 27 27 28 28 29 30 29 28 28 30 31 33 35 36 37 37 36 35 34 32 31 30 30 29
21 20 16 13 11 9 9 9 19 34 36 36 51 58 56 57 61 61 47 41 47 54 64 68 67 63 62 65 71 81 91 98 103 105 106 104 104 103 99 94 92 86 77 67 61 61 63 59 48 34 23 17 15 15 17 19 22 24 25 25 25 26 27 29 30 30 30 29 29 30 31 31 32 34 37 38 38 38 37 36 36 36 35 34 33 32 31 30
20 18 16 14 11 11 11 14 21 40 55 60 66 70 71 69 68 66 53 51 62 72 82 84 82 81 81 87 91 95 100 103 104 103 103 102 101 99 96 93 85 75 65 61 64 64 57 43 29 21 17 16 16 18 21 23 24 24 25 24 25 28 31 33 33 31 30 30 29 31 35 35 35 37 39 40 39 38 38 36 36 36 37 37 36 36 35 34
19 18 18 16 15 17 20 32 41 48 62 71 77 86 93 90 81 75 69 72 87 95 99 99 98 100 99 99 97 98 100 99 99 99 101 102 101 98 94 86 73 65 64 66 64 52 37 25 19 17 16 17 19 22 24 24 24 24 25 26 28 31 33 34 33 31 30 31 31 33 37 36 35 38 39 40 39 39 37 36 36 37 39 40 40 39 39 39
19 18 21 22 27 42 52 66 77 73 73 73 74 82 92 95 87 79 76 82 97 104 102 101 101 101 100 97 95 97 96 93 96 100 103 103 99 93 83 72 64 65 67 61 47 32 23 19 17 17 18 21 23 24 25 24 25 25 27 30 31 32 33 33 33 33 32 31 32 35 38 37 36 38 39 39 39 37 35 35 35 36 39 41 42 42 42 42
19 21 34 46 50 75 92 94 98 94 91 83 74 77 84 90 89 83 81 86 98 104 101 100 100 100 99 97 95 94 93 94 100 104 103 97 88 78 68 65 67 67 57 41 28 21 19 18 19 20 22 24 24 25 25 25 27 28 30 32 32 32 32 32 32 34 34 33 33 35 38 38 36 37 38 38 37 36 34 34 34 36 39 43 45 45 44 43
23 34 59 82 81 93 104 100 101 99 98 94 85 83 87 95 101 101 97 93 98 103 102 101 100 99 95 93 94 96 98 101 103 100 93 83 74 68 68 70 65 52 36 25 21 19 19 21 22 24 25 25 25 26 26 27 30 32 33 33 32 32 32 33 34 35 35 33 33 34 36 37 36 36 37 37 36 36 34 34 35 36 39 43 47 47 45 43
31 55 79 98 99 99 101 100 101 100 99 99 96 93 92 96 101 103 97 88 91 98 100 100 99 97 95 96 99 101 102 101 97 90 80 72 70 72 72 63 47 31 24 21 21 21 22 24 25 26 26 26 26 27 30 32 33 34 33 32 31 32 35 37 37 36 35 34 35 34 35 37 37 36 36 37 37 36 36 37 36 36 39 43 48 48 46 43
38 72 93 98 102 101 99 100 99 100 100 99 100 99 98 97 98 101 91 75 78 84 89 95 96 95 95 97 98 98 98 94 89 81 76 76 78 74 60 42 29 22 22 22 23 24 25 26 27 27 27 27 28 30 33 34 34 33 31 31 31 31 34 36 38 37 36 36 39 38 38 39 39 37 38 39 39 38 39 40 37 35 38 43 48 49 47 43
45 73 99 100 100 100 99 100 99 100 101 99 100 99 101 101 99 102 88 72 74 77 80 84 85 86 88 92 95 96 95 87 82 82 84 85 76 57 39 27 23 22 23 25 26 27 27 28 27 28 28 29 30 32 33 33 32 32 31 32 31 31 34 37 39 39 38 38 41 42 40 41 41 40 41 41 39 38 40 40 36 35 38 42 47 49 47 43
62 70 95 101 99 101 99 98 99 100 100 100 101 100 101 100 99 102 90 78 78 77 79 83 82 84 88 93 94 92 90 88 89 92 89 77 55 36 26 23 23 25 28 29 29 28 28 28 28 29 30 31 33 33 33 32 31 31 31 31 30 32 36 39 39 39 39 40 41 41 39 40 42 41 42 42 40 41 44 42 36 35 37 40 43 45 45 42
88 72 83 97 99 101 97 95 98 101 100 99 101 102 101 100 100 99 88 81 82 86 89 88 87 89 93 94 91 90 94 98 98 92 77 54 35 26 23 24 26 29 30 30 29 29 28 28 29 30 31 33 33 32 31 29 29 30 31 30 29 30 33 36 40 40 39 40 40 38 39 41 42 41 42 42 43 47 48 43 38 36 36 37 40 42 43 41
101 74 73 89 95 92 86 89 94 96 100 101 100 98 94 92 90 84 82 87 91 93 90 88 92 96 97 97 96 98 100 100 92 74 52 33 25 24 24 27 30 31 31 30 29 29 28 28 29 31 33 34 32 30 29 29 33 35 36 36 31 27 28 35 43 43 37 37 37 37 41 42 41 42 41 43 50 53 48 41 38 36 35 36 37 40 42 40
103 80 72 76 82 82 76 79 84 83 86 86 85 85 83 81 81 84 93 96 91 90 93 98 102 101 100 102 101 100 97 87 70 48 31 25 25 26 27 30 32 31 30 30 29 29 29 30 31 33 34 33 31 30 30 32 34 33 34 36 32 28 31 35 40 39 34 34 36 38 40 40 39 42 43 49 55 50 42 39 39 37 35 34 35 38 40 39
100 90 80 67 63 72 73 72 74 73 75 81 88 91 89 87 93 100 101 94 92 98 103 104 100 99 101 101 97 92 81 63 43 29 25 26 27 28 31 33 32 31 30 29 29 30 30 31 32 33 33 31 32 33 33 32 30 29 30 32 35 36 33 31 34 36 35 36 36 37 37 37 39 42 47 55 54 43 38 38 37 36 34 33 34 37 40 42
89 94 89 67 53 64 76 78 75 79 89 98 101 98 95 99 106 106 96 90 96 102 100 96 93 95 95 92 86 74 56 38 28 26 27 28 30 32 34 33 31 29 29 30 31 31 31 31 32 31 31 33 35 34 32 30 29 32 34 36 40 38 30 28 33 37 38 38 36 32 32 37 41 44 51 56 48 39 37 36 35 36 35 33 34 36 40 43
76 89 83 61 50 62 81 94 93 94 103 103 98 98 102 106 106 101 95 94 99 99 93 90 88 87 84 78 67 50 35 29 27 28 29 31 33 34 34 32 30 29 30 31 32 32 31 31 31 30 31 33 34 33 33 33 35 40 42 42 40 34 32 33 34 36 37 35 32 30 31 38 41 43 51 52 43 38 35 32 34 37 36 33 33 36 39 41
66 76 68 49 47 63 79 94 99 97 98 96 96 101 104 104 100 100 101 100 100 98 91 86 82 79 73 61 44 32 29 29 29 30 32 34 34 34 33 30 29 29 30 31 31 31 31 30 30 31 33 34 35 37 37 39 44 48 47 44 40 36 37 36 32 32 32 31 31 32 34 37 40 42 47 46 39 34 33 33 37 39 38 36 34 37 39 39
57 60 54 42 48 71 82 89 95 93 94 95 97 101 100 98 98 100 101 99 100 96 86 80 77 70 57 42 32 30 31 30 31 34 35 36 35 33 31 29 29 29 30 32 32 32 31 31 32 33 34 35 38 42 43 46 48 47 43 42 42 40 36 33 30 28 28 30 32 36 38 37 38 40 40 38 33 31 34 37 40 40 41 39 35 36 38 38
53 56 52 45 54 78 89 91 95 94 97 99 100 103 100 97 98 99 99 99 98 90 80 79 74 58 41 32 31 32 32 31 34 38 38 37 34 31 30 29 29 28 30 31 30 30 30 32 34 34 35 36 40 46 52 54 52 49 45 44 42 39 35 31 28 25 26 31 33 36 39 37 37 36 33 32 30 31 36 39 40 40 41 39 35 35 38 39
47 57 56 50 60 81 91 94 97 97 100 101 103 107 104 100 100 99 98 96 91 83 82 79 62 42 32 31 33 33 32 34 38 39 38 35 32 31 31 30 30 30 30 29 29 30 32 33 34 36 37 39 44 52 57 55 52 52 49 43 39 36 35 32 28 26 25 29 32 33 37 37 34 30 28 27 28 31 35 38 39 38 39 38 34 34 36 38
36 56 60 55 65 83 89 91 95 98 100 100 104 106 102 101 101 99 98 93 87 85 84 70 45 32 32 33 33 33 34 37 40 39 37 34 33 32 31 31 33 32 30 29 31 34 34 34 34 36 37 39 44 49 51 52 52 51 46 40 38 35 35 33 32 29 24 27 31 31 34 36 30 25 24 26 29 33 35 37 36 36 39 39 36 34 36 38
25 50 64 66 77 89 89 91 97 98 100 102 105 103 100 100 99 100 98 92 90 86 72 50 34 32 34 34 34 35 37 39 40 38 36 35 34 33 32 33 34 33 32 33 36 38 36 34 32 33 36 39 41 42 46 51 53 50 44 39 37 36 36 37 37 34 27 26 30 30 29 32 29 24 24 28 31 35 36 33 31 35 40 41 39 35 35 37
17 39 61 76 92 99 95 97 100 100 103 105 103 100 100 100 99 99 94 91 90 77 53 36 32 34 35 34 35 36 38 39 38 37 36 35 34 34 35 35 34 34 34 36 40 40 35 33 30 30 33 35 36 37 41 47 48 47 43 38 37 38 40 41 41 38 31 28 30 29 26 28 31 27 26 29 32 34 31 26 28 35 39 41 41 37 35 37
12 29 54 78 96 103 101 103 103 103 106 105 101 100 100 99 99 96 92 91 84 62 40 32 33 35 36 35 35 37 39 38 37 37 35 34 34 35 36 36 36 37 39 40 40 37 32 29 27 28 31 35 36 36 38 41 43 43 42 40 41 41 41 41 41 42 38 30 27 28 26 26 31 31 30 30 31 31 27 27 34 39 42 46 45 38 36 37
11 22 45 70 86 94 99 102 103 104 105 103 100 100 100 100 97 94 92 86 67 46 36 33 34 35 36 37 37 38 38 37 36 35 34 35 35 35 34 35 38 44 46 42 37 33 30 28 28 28 30 35 39 38 37 38 39 41 41 41 39 38 37 36 38 42 40 32 24 26 29 29 32 34 32 30 30 30 32 40 44 43 48 55 49 38 35 36
11 19 37 59 76 88 93 96 101 105 105 102 101 101 100 99 97 95 87 68 47 37 35 35 36 36 36 38 38 37 36 35 35 35 35 35 34 34 33 35 41 44 42 38 35 33 32 31 31 30 30 33 37 39 39 39 38 39 40 38 34 33 34 33 35 39 40 34 26 26 32 33 34 36 32 30 30 29 35 45 46 46 56 61 50 37 33 36
12 19 30 48 69 85 92 97 104 108 108 105 102 101 99 97 96 87 67 46 37 36 36 36 38 37 38 38 37 35 34 34 35 35 35 35 34 35 35 37 38 36 34 34 35 35 35 34 33 34 34 33 34 37 39 38 37 37 36 34 32 31 31 30 32 36 41 41 33 29 34 35 35 35 32 30 30 31 35 40 44 50 60 61 48 34 32 36
12 18 27 40 58 73 83 94 103 106 107 105 101 100 98 94 85 64 44 36 36 37 37 39 40 39 39 37 35 33 33 34 35 36 36 36 36 36 35 34 32 31 31 32 32 33 35 34 33 35 35 32 31 32 32 32 33 34 33 32 29 26 25 25 26 30 38 45 41 34 35 36 33 33 31 29 30 32 33 38 46 53 57 55 45 34 33 36
11 18 27 38 50 62 71 82 90 94 96 97 98 98 93 79 59 41 34 36 37 38 41 43 42 40 38 35 34 33 34 35 36 38 38 37 36 35 33 32 31 32 32 32 32 32 33 32 30 30 29 28 28 27 27 28 30 32 32 30 30 28 27 26 27 30 36 46 47 38 33 34 32 31 32 30 30 32 31 37 47 51 52 53 49 42 37 35
13 18 25 35 47 57 65 74 83 90 93 94 93 87 72 53 38 34 35 37 39 42 45 45 43 40 36 34 33 34 35 37 38 39 39 37 36 35 34 33 32 33 33 34 34 32 31 32 31 30 28 27 27 28 28 29 29 31 30 30 32 33 31 30 31 35 38 44 48 40 32 34 33 31 32 30 29 31 30 35 45 51 54 56 56 51 42 37
17 22 31 42 52 62 71 81 90 93 88 81 74 63 49 36 32 34 36 38 42 45 47 46 42 38 35 34 34 35 36 37 38 38 38 37 37 36 35 34 34 34 34 33 33 33 34 34 33 32 30 28 30 32 32 31 31 32 32 31 33 34 35 34 33 36 38 40 47 44 34 33 34 30 31 30 29 31 31 33 44 53 56 58 61 58 48 42
31 39 50 60 66 73 79 83 82 76 67 59 52 43 35 32 33 35 38 41 45 47 48 44 40 37 36 35 36 36 37 37 37 37 37 37 37 37 37 36 36 36 36 34 34 35 36 36 35 33 33 33 35 36 36 36 36 37 36 34 33 35 38 38 33 33 35 37 45 48 37 32 34 30 30 31 29 30 31 32 41 50 54 59 66 64 53 47
47 54 61 65 65 67 66 63 58 52 47 42 37 33 32 33 35 37 40 44 48 49 47 42 39 37 37 37 37 37 38 39 38 37 37 38 39 40 39 39 39 39 38 36 35 34 35 38 39 36 37 38 38 38 38 41 42 40 40 39 38 39 40 41 37 33 34 35 40 47 41 33 33 31 31 32 30 29 30 31 38 46 55 65 71 65 55 51
49 51 54 52 50 50 48 45 43 40 36 34 33 32 33 34 37 40 44 48 50 50 45 41 39 38 38 39 39 40 41 41 40 40 41 42 43 43 43 43 43 42 41 39 37 36 35 37 39 39 39 39 41 43 41 41 41 39 41 43 42 40 40 43 41 35 35 36 37 43 43 36 34 33 32 33 31 29 29 31 36 47 63 74 71 64 60 58
42 42 42 40 40 41 40 38 36 34 33 33 33 32 33 36 40 43 47 50 51 48 44 41 40 40 40 41 41 43 44 44 43 44 45 47 46 46 45 45 45 44 44 42 39 38 37 37 41 43 42 41 43 45 43 42 44 43 42 43 42 40 39 41 41 36 35 36 36 40 43 41 38 36 33 33 31 29 30 31 38 55 74 79 71 67 67 62
34 34 36 37 37 37 35 33 32 33 33 33 32 33 36 39 43 47 50 51 50 46 43 42 42 42 42 43 44 45 47 47 47 47 49 50 49 49 47 46 46 46 46 46 44 42 40 40 43 47 48 45 44 47 48 50 54 54 49 43 40 39 37 39 39 35 34 36 37 41 45 44 41 37 33 33 31 29 29 31 39 59 77 78 72 70 70 65
33 34 35 35 34 32 31 32 33 33 32 32 32 35 38 42 46 49 51 51 48 45 44 44 43 43 43 44 45 47 48 49 49 49 50 50 49 49 48 47 46 46 47 48 47 45 43 43 44 48 52 52 51 53 57 57 57 56 49 42 39 37 37 39 38 34 35 38 38 42 46 45 41 37 34 33 32 30 29 30 40 61 76 76 71 72 73 69
34 33 31 30 29 30 31 33 34 32 31 32 34 37 40 44 48 51 51 49 47 46 45 45 44 44 44 44 45 46 48 49 50 50 50 50 50 49 48 47 47 47 47 48 48 47 47 47 46 48 54 56 54 53 54 52 48 46 44 41 39 37 36 37 37 35 36 40 40 41 45 45 42 39 36 34 33 31 29 30 41 61 74 75 74 76 77 71
32 29 27 27 29 31 33 33 32 31 32 33 36 40 43 46 49 50 50 48 47 46 46 45 45 44 44 45 45 45 46 47 49 51 51 51 51 49 48 48 47 47 48 49 50 50 50 50 48 46 48 50 49 46 44 41 38 37 38 39 37 35 35 36 36 35 36 41 41 40 42 44 43 40 37 35 34 32 30 31 41 57 69 75 78 80 79 71
27 25 25 28 31 33 34 32 31 31 33 35 38 41 44 47 50 50 49 47 46 46 46 46 46 46 45 45 45 44 44 45 48 50 51 51 51 50 50 49 48 49 50 52 54 54 54 54 51 46 43 44 43 41 39 38 38 38 37 38 38 38 37 36 36 36 36 40 43 41 39 41 42 40 37 35 34 33 31 31 40 55 69 80 83 82 80 71
23 24 27 31 33 33 32 31 31 32 34 36 39 42 45 48 49 49 48 48 47 46 47 47 47 48 47 47 45 44 44 45 47 49 50 50 51 51 51 51 51 51 53 54 56 57 57 58 59 55 49 48 48 46 44 43 42 40 39 40 42 43 40 36 37 38 37 40 43 42 39 38 39 39 36 34 34 34 31 30 40 59 77 87 87 86 84 72
23 26 30 33 33 32 32 31 31 33 35 37 39 42 45 48 49 49 48 47 47 47 48 48 48 48 48 46 45 45 45 46 48 49 50 50 51 52 52 53 54 53 54 54 55 57 58 59 63 63 56 52 52 52 49 46 43 41 42 44 46 45 42 38 38 40 40 40 40 40 39 38 38 37 35 33 33 33 30 31 44 65 83 91 93 92 85 70
25 29 33 34 33 32 32 31 32 33 35 38 40 43 46 48 49 49 48 48 48 48 48 48 48 47 47 46 46 46 47 48 48 48 49 49 49 50 51 52 53 53 53 54 54 55 57 58 59 62 60 55 54 53 50 47 46 46 47 48 47 44 42 40 39 40 40 39 37 37 38 37 36 36 34 32 32 31 30 35 51 71 85 94 98 95 81 67
28 32 34 33 33 32 32 32 32 34 36 38 42 44 46 48 49 49 49 48 48 48 47 47 47 47 47 47 47 48 49 49 49 49 48 47 47 48 49 50 51 52 53 55 55 54 56 57 56 59 63 59 56 55 52 51 52 51 49 48 44 43 44 41 38 38 38 37 36 36 36 35 35 34 33 32 32 30 32 42 60 78 90 98 99 90 75 65
30 33 34 33 33 32 32 32 33 34 36 39 42 44 46 48 49 49 49 48 48 47 46 46 47 47 48 48 49 49 50 49 49 48 47 47 46 46 47 47 49 51 52 54 55 53 53 55 53 55 59 59 57 57 56 54 53 50 46 43 41 44 45 41 37 36 36 35 35 34 33 33 33 31 32 33 31 31 38 50 67 83 93 98 95 84 72 65
32 33 34 33 33 33 32 33 33 35 37 39 42 44 46 47 48 48 49 49 48 47 47 46 47 47 48 48 49 49 49 48 47 47 47 46 46 45 45 45 45 47 49 51 53 52 51 52 52 51 54 55 51 51 51 48 47 45 42 40 41 42 43 42 39 36 35 34 33 32 31 31 31 31 33 32 31 36 45 54 70 86 93 93 89 81 72 64
33 34 34 34 34 33 33 33 34 35 37 39 41 43 45 46 47 47 48 49 48 48 47 47 47 48 48 49 49 49 48 48 47 47 46 45 45 45 44 44 43 44 45 46 49 49 47 47 47 46 47 48 45 44 45 44 43 43 42 40 39 38 40 45 42 36 35 34 31 30 30 30 30 32 32 32 35 44 50 58 75 90 91 88 86 80 70 61
Wind_Speed
25 26 27 28 30 33 34 35 36 37 39 42 45 46 48 47 46 47 48 47 46 46 46 45 45 45 45 45 46 46 45 45 45 45 45 46 47 48 49 50 51 52 53 54 54 55 56 56 57 58 59 60 61 61 61 60 58 55 52 49 47 46 47 48 49 51 52 53 53 54 55 55 55 53 53 54 54 54 55 56 56 56 56 58 61 62 63 64
23 24 25 25 28 31 32 34 35 37 39 41 44 46 48 47 45 46 47 46 46 46 47 47 46 45 45 46 47 47 47 46 46 46 47 48 48 49 49 50 51 53 53 54 55 55 55 56 57 58 59 59 59 58 57 54 51 48 46 45 45 46 47 48 49 50 50 50 51 51 52 51 51 51 50 51 52 53 53 55 55 56 55 55 58 60 61 63
22 23 23 24 25 28 30 32 33 36 39 42 44 46 47 47 46 46 46 47 47 47 47 47 46 46 46 47 48 47 47 47 47 47 47 48 48 49 50 51 52 53 53 54 54 54 55 56 57 57 56 56 55 53 50 47 44 42 42 43 44 45 46 47 47 48 48 47 47 48 49 49 49 49 49 49 51 51 52 53 54 56 56 55 57 60 61 63
21 22 22 22 24 26 28 31 32 35 40 43 44 46 47 47 46 46 47 47 47 47 47 47 47 46 47 48 48 47 46 46 46 47 47 47 48 49 50 51 52 52 53 53 53 54 55 55 55 54 53 52 49 46 43 41 40 40 41 42 43 43 44 44 45 45 45 45 45 46 47 48 48 48 48 48 49 50 51 53 55 57 58 58 59 61 64 65
21 20 21 21 23 25 27 30 33 35 41 44 45 46 47 47 46 47 47 47 46 46 46 47 47 47 48 49 48 46 46 46 46 46 46 47 48 49 50 50 51 52 52 52 53 53 53 52 51 50 48 46 43 40 39 38 39 40 40 40 40 41 41 42 43 43 43 43 43 45 47 47 47 47 47 48 48 50 51 54 57 59 62 63 63 65 67 69
20 19 19 20 22 23 25 29 34 36 40 44 45 47 48 47 46 46 48 47 45 45 45 45 47 47 48 47 46 45 45 45 45 45 46 47 48 49 49 50 51 51 51 51 51 51 50 49 47 45 42 40 38 37 36 37 38 37 38 37 37 38 38 39 40 41 42 43 43 44 45 46 47 47 48 48 50 52 54 56 60 63 65 68 69 70 72 74
19 18 18 19 20 21 22 26 34 39 40 43 44 44 45 47 47 47 48 45 42 42 43 44 45 45 45 44 44 44 44 44 45 45 46 47 48 49 50 50 49 49 49 49 48 47 46 45 42 40 37 35 35 35 36 36 36 35 35 35 35 35 36 38 40 41 42 43 43 42 44 45 46 47 48 50 51 54 56 59 63 66 69 71 73 75 77 79
19 17 17 18 18 17 19 23 32 40 42 43 44 44 43 45 46 47 47 43 39 39 40 41 41 42 42 43 43 43 44 44 45 45 46 47 48 49 48 48 47 47 46 45 44 43 41 39 37 35 33 33 34 34 34 34 34 33 33 33 32 33 35 37 40 41 42 42 43 43 43 45 46 47 49 50 52 55 58 61 65 68 71 73 75 77 79 82
19 17 17 16 15 15 18 21 27 35 41 44 45 46 45 45 46 47 46 43 40 39 39 39 39 40 41 42 43 43 44 44 45 45 46 47 47 46 45 45 44 43 42 41 40 38 35 34 32 32 32 33 33 33 32 32 31 31 30 31 32 33 35 36 38 41 42 43 43 42 44 46 47 47 49 51 53 56 59 62 66 69 72 75 77 79 81 83
19 16 16 16 16 17 19 21 23 28 33 38 42 44 45 44 44 44 44 43 41 41 40 40 40 41 41 42 43 43 44 44 45 45 45 44 43 43 42 41 40 39 38 37 34 32 31 30 31 31 32 32 31 31 30 28 28 28 29 31 33 34 35 36 38 40 42 42 42 42 43 46 48 49 50 52 54 57 60 64 68 72 75 78 80 82 83 84
17 17 19 18 18 22 25 26 24 24 24 28 33 36 39 40 41 42 43 43 43 43 42 43 43 43 44 44 44 44 45 44 44 43 41 40 40 39 38 37 36 35 33 31 29 28 28 29 30 31 31 30 29 28 27 26 26 27 29 30 33 35 36 38 39 40 41 43 43 43 43 45 48 50 51 53 55 58 61 65 70 73 76 79 81 83 85 86
18 21 25 24 24 27 30 30 29 26 24 23 25 27 30 34 36 39 41 43 43 45 45 46 46 46 45 45 45 44 43 41 40 38 38 37 36 35 34 33 32 30 28 26 26 26 27 29 29 29 28 27 26 25 25 25 26 26 28 29 31 34 36 38 40 40 41 44 46 45 44 47 49 50 52 54 57 60 63 67 71 74 77 79 82 84 85 86
21 26 30 31 30 30 30 31 32 31 29 27 26 25 25 27 29 33 37 39 40 42 44 45 45 45 44 43 41 39 37 36 35 35 35 34 33 32 31 29 27 25 24 24 24 26 27 27 27 27 26 25 24 24 24 24 25 26 28 29 31 33 36 37 40 41 42 44 48 49 48 49 51 53 55 57 59 62 66 70 73 76 78 80 83 85 86 87
23 28 33 34 34 33 30 29 31 33 33 32 31 29 28 28 29 30 33 33 32 32 35 37 38 38 37 35 34 32 32 32 32 32 32 31 31 29 27 24 23 22 22 23 24 25 25 25 24 24 24 23 23 23 23 25 26 27 28 30 33 36 38 39 41 43 45 46 49 51 52 53 55 56 58 60 62 65 68 72 75 78 80 82 84 85 86 87
26 28 34 37 37 36 34 30 29 32 35 35 35 34 33 33 32 33 34 32 29 27 28 29 30 30 28 28 28 28 29 30 30 30 30 29 28 25 22 20 19 20 21 22 24 24 24 23 22 22 22 22 22 23 23 24 26 27 29 31 33 36 39 42 43 44 47 50 51 52 54 55 57 59 60 62 64 67 70 73 76 78 80 82 84 86 87 87
29 28 32 37 38 39 38 35 32 32 35 37 37 37 37 36 36 36 36 32 29 27 26 25 25 24 23 24 25 26 27 28 29 29 28 26 23 20 19 18 18 19 21 22 23 22 22 21 20 20 20 21 21 21 22 24 27 31 32 32 31 33 37 42 46 47 48 52 54 54 56 57 59 61 62 64 66 69 72 73 76 78 81 83 85 87 88 88
32 29 29 34 37 38 38 37 35 34 34 36 38 39 38 37 36 35 32 30 28 26 23 21 20 20 20 21 23 25 26 27 28 27 24 21 19 17 16 16 17 19 20 21 21 21 20 19 19 19 20 20 21 22 24 27 30 33 34 35 33 32 36 43 49 51 49 51 54 56 58 60 62 63 63 65 68 71 72 73 76 79 81 83 85 88 89 89
34 30 28 31 34 35 35 36 36 34 33 33 33 34 34 33 31 29 28 26 24 20 18 17 17 18 20 22 23 24 26 26 25 22 20 17 16 15 15 16 17 19 19 20 20 19 18 18 18 18 18 20 23 24 25 27 28 30 33 36 37 36 38 42 47 50 51 52 54 58 60 61 62 64 65 67 69 71 72 74 77 80 81 83 86 89 91 92
35 32 29 29 29 31 31 31 32 32 30 28 27 27 27 25 23 22 22 21 18 15 15 16 17 19 21 22 23 24 24 22 20 18 16 15 13 13 15 16 18 18 19 19 19 17 16 16 17 18 19 21 24 25 26 27 28 30 32 35 40 41 40 40 45 49 53 55 56 58 60 61 62 65 66 68 69 70 71 74 77 80 82 84 87 89 93 95
36 34 31 28 27 27 26 24 24 24 24 23 23 22 20 18 18 18 18 17 16 16 16 18 19 20 21 22 22 21 19 18 17 16 13 12 12 14 15 17 18 19 18 18 16 16 15 16 17 19 20 22 24 25 27 28 30 32 35 37 41 43 41 41 46 52 55 56 56 56 59 62 64 66 68 68 69 70 71 73 77 81 84 86 89 91 94 97
37 36 33 29 26 25 25 22 20 20 21 21 20 18 16 16 16 15 14 14 15 17 17 18 18 19 20 19 18 17 16 16 15 13 11 11 12 14 16 18 18 18 17 16 15 16 16 17 19 20 21 23 25 27 29 31 33 35 38 40 41 42 44 46 48 52 55 55 56 57 59 63 65 66 68 68 68 70 71 73 77 82 86 88 91 94 95 96
38 37 34 29 25 24 25 26 25 23 22 20 18 16 15 15 14 13 11 12 13 16 16 17 18 18 17 16 15 15 15 15 13 11 11 11 13 15 17 17 17 17 16 16 16 17 17 19 20 21 22 24 27 29 30 32 35 38 40 42 44 44 47 50 50 50 53 55 57 59 60 62 64 66 67 68 68 70 71 74 78 83 87 91 94 95 95 95
38 37 34 28 24 22 22 24 25 22 19 17 15 15 14 13 13 12 11 13 14 16 17 17 17 16 14 13 14 14 14 13 11 10 11 13 15 17 17 17 17 17 17 17 17 17 18 19 21 22 23 25 27 30 32 34 37 39 40 43 46 48 47 48 49 50 53 56 58 60 61 61 63 65 66 67 68 70 72 76 80 84 88 92 94 95 96 98
38 37 33 29 24 22 21 21 20 19 17 15 15 16 14 12 12 11 12 15 17 18 18 17 15 13 12 12 13 14 14 11 10 11 13 16 17 17 17 17 17 17 18 18 18 17 18 20 22 24 24 25 28 31 34 36 39 40 42 43 47 50 50 50 50 50 53 57 58 60 61 61 62 64 64 66 68 70 73 77 81 84 88 90 92 94 97 101
37 37 34 30 26 23 21 20 19 18 16 15 17 18 14 12 12 13 15 17 18 18 17 15 13 12 12 13 14 14 12 10 11 14 16 17 17 16 16 17 17 17 18 19 19 18 19 20 22 24 25 26 28 32 35 37 40 42 44 45 47 50 54 55 54 53 53 56 58 59 61 62 62 62 63 65 69 72 74 78 81 84 87 89 92 95 98 101
34 36 35 31 27 25 22 21 20 18 18 19 20 17 15 14 14 15 17 18 19 17 14 12 12 12 13 14 15 13 11 11 13 16 17 17 16 16 17 17 17 18 18 18 18 18 19 21 23 24 26 27 29 31 35 38 41 43 45 47 49 52 55 58 59 58 56 56 59 60 61 62 61 61 64 66 69 73 75 78 80 84 87 90 94 98 100 102
32 36 36 32 28 25 23 21 21 20 21 22 20 17 16 17 17 18 19 19 18 15 12 11 12 13 14 15 14 12 11 13 15 17 17 17 17 17 17 17 17 17 17 17 18 20 21 22 23 25 27 28 30 32 35 38 42 45 47 49 51 54 57 61 63 63 60 58 59 60 60 63 63 63 65 68 71 74 76 78 80 84 89 93 97 100 103 103
29 34 36 33 29 26 24 24 24 24 24 22 20 18 18 19 20 20 20 18 16 13 12 12 13 15 15 15 14 13 13 15 16 17 17 17 17 17 17 18 18 18 17 17 19 21 23 24 25 26 28 30 31 33 35 38 42 46 49 50 53 56 60 63 65 66 64 61 60 62 62 63 67 67 67 70 73 74 76 77 81 87 91 95 99 103 105 105
27 32 35 35 33 30 29 28 27 27 25 22 20 20 21 21 21 21 18 15 14 13 12 13 15 16 15 14 14 14 16 17 17 18 18 18 18 18 18 19 19 19 19 19 21 24 25 26 27 28 30 31 32 34 35 38 42 46 50 52 55 58 60 63 66 68 68 64 60 64 66 65 67 71 72 73 75 77 78 81 86 90 94 97 100 103 104 104
25 29 34 36 36 34 32 31 30 28 25 23 23 23 23 22 21 18 15 13 13 13 13 15 16 16 15 15 15 16 17 18 19 19 19 18 18 19 20 20 20 20 21 23 25 27 28 29 30 30 31 32 34 35 37 39 42 45 49 52 54 56 58 61 64 68 71 68 62 64 70 70 70 74 76 76 78 80 83 86 89 92 95 98 100 101 103 103
24 27 31 35 36 35 34 33 31 29 27 26 26 25 23 21 18 15 14 13 13 13 15 16 17 16 15 15 16 17 18 19 19 19 19 20 20 21 21 21 21 22 24 26 28 29 31 31 32 33 33 34 35 37 39 41 43 45 49 51 53 56 58 60 63 68 73 73 68 66 72 75 75 76 77 78 79 82 85 87 89 91 94 98 99 100 102 103
24 26 29 31 33 34 34 34 32 31 30 28 26 23 20 18 15 14 14 13 14 15 16 16 16 15 15 16 17 18 19 19 20 20 20 21 21 21 22 22 24 25 27 28 29 31 32 34 35 36 36 36 37 38 40 42 44 46 48 52 54 55 57 59 62 66 72 76 73 69 72 76 76 76 77 78 80 82 84 86 87 90 93 96 98 100 103 106
24 25 26 27 29 30 31 31 31 30 28 26 23 20 18 16 15 15 14 14 15 17 16 16 15 16 16 17 18 19 19 20 21 21 21 21 22 23 24 25 26 27 28 29 31 32 34 35 36 37 38 38 39 39 41 43 44 47 49 52 54 55 56 58 59 63 69 75 76 73 73 76 75 76 77 77 80 82 83 85 87 89 92 95 98 101 105 107
23 24 25 26 26 27 27 28 27 26 24 22 20 18 17 16 15 15 15 16 17 17 16 16 17 18 18 19 19 19 20 20 21 21 22 23 24 25 26 27 28 29 30 31 33 34 35 37 38 39 39 40 41 42 43 44 45 47 50 53 57 60 61 62 63 65 68 72 76 74 73 76 76 76 78 78 80 82 82 84 86 88 92 95 99 102 105 107
23 24 24 25 25 25 25 25 24 23 22 20 19 18 17 16 16 16 17 17 17 16 17 18 19 19 20 20 20 20 20 20 21 22 23 25 26 27 28 28 29 30 31 32 34 36 37 39 40 41 42 43 45 45 45 45 46 48 50 54 59 62 65 67 68 69 70 72 77 76 74 76 79 78 78 78 79 82 82 84 87 89 92 96 98 101 104 107
23 24 24 24 24 25 25 24 23 22 21 19 18 17 17 17 17 17 18 17 17 17 18 19 20 20 20 20 20 21 21 21 22 23 24 26 27 28 29 29 30 31 32 34 36 38 39 40 42 43 44 46 47 48 48 48 48 50 53 55 59 63 67 69 69 69 70 72 78 80 76 77 79 78 78 78 79 82 84 85 88 90 92 95 98 101 105 108
23 23 24 24 24 25 24 23 22 21 19 18 18 17 17 18 18 18 17 17 17 18 20 21 21 21 21 21 21 21 21 22 23 24 25 26 27 28 29 30 31 32 34 36 37 39 40 42 44 45 47 49 49 50 51 53 53 54 56 57 59 64 68 71 71 69 70 71 75 81 80 78 79 79 79 79 81 83 85 85 87 89 91 95 99 103 106 109
22 23 23 23 23 23 22 21 20 19 18 18 18 18 18 19 19 18 17 17 18 19 21 21 22 21 21 21 21 22 22 23 24 25 26 27 28 29 30 30 32 33 35 37 38 40 41 43 45 47 48 50 51 52 52 54 56 57 59 61 63 65 68 73 75 74 73 72 73 78 82 81 80 81 81 82 82 83 84 85 86 89 92 96 100 103 106 110
21 22 22 21 21 20 19 19 18 18 18 18 18 19 19 19 18 18 18 18 20 21 22 22 22 22 22 22 22 23 24 25 26 26 27 28 28 30 31 32 33 35 37 38 39 41 43 45 47 48 50 51 52 54 54 55 57 58 60 63 64 66 68 72 78 79 77 76 75 77 82 83 83 83 84 84 84 84 85 86 88 92 94 97 100 103 107 110
20 20 20 19 19 18 18 18 18 18 18 19 19 20 19 19 18 18 19 20 21 22 23 23 23 23 23 23 23 24 25 26 27 27 28 29 29 31 32 33 35 36 38 40 41 43 45 46 48 50 51 52 53 55 57 58 60 61 62 64 66 68 69 71 76 79 79 78 78 79 82 84 85 86 85 85 85 86 87 88 90 93 95 98 101 103 106 109
19 18 18 17 17 17 17 18 19 19 19 20 20 20 19 19 19 19 20 21 23 24 24 25 24 24 24 25 25 25 26 27 28 29 29 30 31 33 34 35 37 38 40 42 43 45 46 48 49 51 52 54 55 56 59 61 64 66 67 67 69 70 71 72 75 78 80 80 79 80 82 84 85 86 86 86 86 86 88 88 90 92 94 97 100 102 105 108
17 17 16 16 17 18 18 19 19 20 20 21 20 20 20 20 20 20 22 23 24 25 26 26 25 25 26 26 26 26 27 28 29 31 31 33 34 35 37 38 39 40 42 44 45 47 48 49 50 51 53 56 56 58 61 62 65 68 71 71 72 72 73 74 76 77 80 81 80 80 83 85 86 87 87 88 88 89 89 89 89 91 93 96 99 101 104 107
16 16 17 17 18 19 20 20 20 21 21 21 21 20 20 20 21 22 23 24 26 26 27 27 27 27 27 28 28 28 29 29 31 32 33 35 36 38 39 40 42 43 44 45 47 48 50 50 51 51 53 56 57 58 61 63 64 67 71 73 74 74 73 75 77 78 80 82 81 79 81 85 87 88 89 90 90 91 91 90 90 91 92 95 98 101 104 107
16 17 17 18 19 20 21 21 21 21 21 21 21 20 21 21 22 23 25 26 27 28 28 29 29 29 29 30 30 30 31 31 32 33 34 36 38 39 41 42 43 44 45 46 48 50 51 52 52 52 52 55 57 59 60 63 65 66 70 73 74 74 74 75 77 78 78 81 82 79 79 84 87 88 89 89 89 90 91 90 89 90 91 94 98 100 103 106
17 17 18 19 20 21 21 21 21 21 21 21 21 21 22 22 23 25 26 27 28 29 29 30 30 31 31 32 32 32 33 33 34 35 36 38 39 41 42 43 44 45 46 47 49 51 52 53 54 54 55 56 59 61 62 65 68 69 71 73 75 77 77 77 78 78 78 80 83 82 79 80 84 86 87 88 89 90 91 89 88 89 92 95 97 100 103 106
18 18 19 20 21 21 22 22 22 22 22 22 22 22 23 24 25 26 27 28 29 30 30 31 32 32 33 33 34 34 35 35 36 37 38 39 41 42 43 45 46 46 48 49 50 52 53 55 57 58 59 60 63 66 68 69 71 73 74 75 78 79 79 79 79 80 80 80 82 84 82 80 82 85 86 87 88 89 89 88 87 89 92 94 97 99 102 105
18 19 21 22 22 22 22 22 22 22 22 22 22 22 23 25 26 27 28 29 30 30 31 32 33 33 34 35 35 36 36 37 38 39 40 42 43 44 45 46 47 48 49 50 51 53 55 56 58 61 62 63 65 68 71 72 73 75 76 77 79 80 81 80 80 81 82 81 80 83 84 83 83 85 87 86 87 89 89 87 87 89 91 94 96 99 102 105
19 20 21 22 22 22 23 23 23 22 22 22 23 23 24 26 27 28 29 30 31 31 32 33 34 35 35 36 36 37 38 39 40 41 42 44 45 46 47 48 49 50 51 52 53 54 56 57 59 62 65 66 68 70 72 74 75 76 78 79 79 80 81 81 80 80 81 81 80 80 82 84 84 85 86 86 87 88 88 86 86 88 91 94 96 98 101 104
20 21 22 22 22 23 23 23 23 23 23 23 24 25 26 27 28 29 30 31 32 33 34 35 36 36 37 38 38 39 40 41 43 44 45 46 47 48 49 49 50 51 52 54 55 56 57 59 60 62 66 68 70 72 74 76 77 78 78 79 79 79 80 80 79 79 80 80 80 79 80 82 84 85 86 86 87 88 86 85 87 89 91 93 95 98 101 103
21 22 23 23 23 23 23 24 24 24 24 24 25 26 27 28 30 31 31 32 33 35 35 36 37 38 39 40 41 42 43 45 46 47 48 48 49 50 51 51 52 53 54 55 56 57 58 60 61 62 66 69 71 73 75 76 77 78 78 77 78 79 81 81 80 79 79 79 79 79 79 80 82 84 86 86 87 86 85 84 86 88 90 93 95 98 101 103
21 23 23 24 24 24 24 24 24 24 25 25 26 27 28 29 31 32 33 34 35 36 37 38 39 40 41 42 43 45 46 47 48 50 50 51 52 52 53 53 54 55 56 57 58 59 59 61 62 63 65 69 70 71 74 75 75 76 76 76 77 78 80 82 82 80 80 79 78 78 79 79 81 82 84 86 86 84 83 84 85 88 90 92 95 98 100 102
22 23 24 24 25 25 25 25 25 25 26 26 27 28 29 30 32 33 34 36 37 38 39 40 41 42 43 45 46 47 49 50 51 52 53 54 54 55 55 55 56 57 58 58 60 61 62 62 64 64 66 69 70 71 72 74 74 74 75 76 76 76 78 83 84 82 80 80 78 78 79 80 81 81 82 83 83 81 81 83 85 87 90 92 95 97 100 102
Wind_Direction
239 240 240 239 238 237 236 234 231 229 228 229 232 235 238 239 239 239 242 245 247 249 251 252 252 254 256 258 260 261 262 264 266 268 270 273 275 277 279 280 281 282 283 285 286 288 290 292 293 294 295 296 297 298 299 299 300 301 302 303 305 307 310 312 313 314 314 313 311 308 305 304 302 301 300 300 299 298 297 296 295 295 297 299 300 300 300 299
239 241 241 239 238 237 236 234 231 228 226 227 229 232 236 239 238 239 241 243 245 247 250 252 252 253 255 257 259 260 263 265 267 269 272 274 276 278 279 280 281 282 284 286 288 290 291 293 294 295 296 297 298 299 300 301 302 304 305 307 311 314 315 315 314 313 311 309 307 304 303 302 302 302 301 301 301 300 299 298 298 297 296 299 301 301 302 301
240 242 241 238 238 236 234 232 229 226 223 223 226 230 234 237 238 238 239 241 242 244 247 250 252 253 254 255 257 259 262 265 267 270 272 275 276 278 279 280 282 284 286 288 289 291 292 293 294 296 297 298 300 301 302 303 305 307 311 315 317 317 315 312 310 308 307 306 305 304 305 305 306 307 307 306 305 304 305 305 306 307 305 305 305 305 304 304
242 244 242 237 236 233 230 228 224 220 218 219 222 225 229 234 236 237 237 238 241 243 245 248 251 252 254 255 257 260 262 265 268 270 273 275 276 278 280 281 283 285 287 289 290 291 293 294 295 297 299 300 302 303 304 305 309 314 318 319 316 313 309 307 306 305 306 307 308 310 311 312 313 313 313 312 312 312 314 315 316 316 315 313 313 313 313 312
245 247 245 238 234 230 225 222 218 215 213 214 216 220 224 229 232 235 237 237 239 241 244 246 249 251 252 255 258 261 263 266 269 271 273 275 277 279 281 283 285 287 288 290 291 293 294 296 298 300 301 302 303 304 307 313 317 319 318 315 311 308 307 306 306 308 310 312 315 317 318 319 319 319 319 319 319 319 320 321 322 323 323 322 321 320 320 320
249 250 247 240 234 228 221 216 212 209 209 211 213 218 222 226 228 232 236 237 237 239 242 245 248 251 254 257 260 263 265 267 269 271 273 275 277 279 281 284 286 288 290 291 293 295 296 298 300 301 302 304 306 311 316 320 319 316 312 309 307 306 308 309 311 314 317 319 322 324 323 324 325 325 325 325 324 324 324 326 328 329 330 330 329 328 327 326
252 252 248 241 234 226 217 211 207 203 204 208 212 217 222 225 228 231 236 238 239 240 243 246 250 253 257 259 261 263 265 266 268 271 273 275 278 280 283 285 287 289 291 293 295 297 299 300 301 302 305 309 314 319 321 318 313 310 308 307 309 310 313 315 317 320 322 325 327 329 328 328 329 328 328 329 329 329 330 332 334 335 336 336 335 334 332 331
255 252 245 238 230 218 207 202 204 203 203 206 210 215 220 225 228 231 235 237 239 241 243 247 250 254 256 258 260 262 264 266 268 271 273 277 280 282 285 287 289 291 293 296 298 299 300 301 303 306 311 317 321 321 317 312 310 310 311 312 314 317 319 321 323 325 328 330 332 333 332 331 331 332 332 333 334 334 336 337 339 340 340 339 338 337 336 334
256 248 236 227 213 196 193 194 202 207 208 210 211 214 218 222 227 230 233 235 236 238 240 243 247 250 253 256 258 261 263 266 269 273 276 279 282 284 286 288 291 293 296 297 299 300 302 304 309 314 320 322 319 314 311 310 311 313 316 318 320 322 324 325 328 330 332 334 335 337 337 334 334 335 336 337 337 338 339 340 341 342 342 341 340 339 337 335
249 232 218 212 193 178 189 194 202 212 215 219 219 219 221 224 229 233 234 234 234 236 238 241 245 248 252 255 258 261 265 269 273 276 279 281 283 285 287 290 293 295 297 299 300 302 305 311 317 321 321 318 313 310 311 312 315 318 323 324 325 326 327 329 332 336 337 336 336 339 340 337 336 337 339 339 340 341 342 343 344 344 344 343 342 340 338 336
234 209 197 193 182 181 197 200 199 208 214 223 226 225 227 229 232 236 237 236 235 236 238 241 244 247 251 255 258 263 268 272 276 278 279 282 284 287 290 293 295 297 299 300 302 307 313 319 321 319 316 312 311 313 315 319 323 326 329 330 330 331 334 336 338 340 339 336 336 338 340 339 337 338 339 340 341 343 343 344 346 346 346 345 343 341 339 337
214 193 186 180 179 187 202 202 197 201 204 214 225 228 232 233 235 240 241 240 239 239 240 242 245 249 253 258 262 267 271 274 276 278 281 284 287 289 292 295 297 298 300 303 308 315 320 320 317 314 312 313 316 320 324 328 329 330 331 332 333 335 339 341 342 341 340 337 337 338 340 340 339 338 339 341 343 344 345 347 348 348 347 346 344 342 340 338
204 189 186 181 182 190 203 207 202 201 202 206 215 221 228 234 237 242 244 243 243 244 245 247 250 254 257 261 264 267 270 274 277 281 284 286 289 292 295 297 298 299 303 310 316 320 319 316 312 311 313 318 322 327 330 330 331 332 334 335 336 337 339 341 341 341 340 340 340 340 341 341 340 340 341 344 345 346 348 349 350 350 348 347 345 343 341 339
204 191 189 187 186 189 197 209 212 209 209 211 215 220 225 228 233 239 245 247 248 248 249 251 253 256 259 261 264 268 272 276 280 282 284 288 292 295 296 297 298 304 311 316 318 317 314 310 310 314 320 324 328 333 334 334 335 336 339 341 342 341 341 341 343 343 342 342 343 342 342 342 341 342 344 345 346 348 350 351 351 350 349 348 346 344 341 339
208 196 193 194 192 194 195 201 211 216 217 219 222 226 229 231 236 242 247 251 253 254 253 253 255 258 261 265 268 271 275 277 279 282 287 291 293 295 296 298 304 312 316 314 311 309 308 308 313 320 324 328 334 336 335 334 335 339 343 345 344 343 342 342 343 345 344 343 344 342 341 342 343 344 345 346 348 350 352 352 351 350 349 348 346 344 342 340
208 204 199 200 199 201 202 200 205 212 217 221 224 227 231 234 239 244 249 254 257 258 257 258 262 265 267 269 270 272 273 276 280 285 289 291 292 293 296 303 311 315 311 306 304 304 306 311 318 322 326 332 335 331 329 332 338 343 344 343 343 341 340 341 342 345 346 343 343 342 342 344 344 345 346 347 349 351 352 352 351 350 349 348 346 344 343 341
207 211 204 205 206 208 209 207 208 210 214 220 224 228 232 236 241 247 252 257 258 259 260 263 265 265 265 266 268 270 273 278 283 287 288 289 291 293 300 308 311 308 302 299 299 301 307 314 320 325 330 331 326 327 333 339 344 345 344 342 341 339 339 342 343 343 343 342 342 342 343 345 345 345 347 348 350 351 352 351 350 350 349 348 346 345 344 342
208 215 210 208 209 211 213 213 215 217 218 223 228 232 236 240 245 249 253 254 255 257 258 259 257 257 259 262 266 271 276 281 283 284 285 287 290 296 304 307 304 299 295 294 297 303 311 316 321 326 327 323 324 331 337 341 340 339 340 339 338 340 343 343 341 340 340 341 343 343 343 344 344 345 347 349 350 350 350 351 350 349 348 347 347 346 345 344
207 214 214 211 208 210 213 215 218 222 225 229 233 235 238 240 242 244 247 248 247 245 245 248 250 254 257 263 269 275 278 279 280 280 282 285 291 300 303 300 296 293 291 292 298 304 310 313 317 320 320 323 329 333 334 333 332 332 335 338 339 341 341 339 339 340 341 342 344 343 341 341 343 344 347 349 349 349 350 350 350 349 348 348 348 347 347 347
206 211 213 211 205 205 208 212 216 218 221 224 228 231 232 232 233 236 240 239 232 230 237 245 250 255 261 268 273 274 274 274 274 276 279 286 294 298 296 292 289 288 289 292 297 301 305 308 311 314 319 324 328 329 328 327 329 334 337 340 341 338 336 337 340 343 343 342 342 341 340 341 344 345 346 347 347 348 349 349 350 350 350 349 349 349 350 349
205 210 213 210 202 200 199 202 210 212 212 216 222 223 220 221 225 230 234 232 230 234 242 247 254 262 267 270 270 269 269 268 268 272 280 288 292 291 286 284 284 285 288 290 292 295 298 302 307 312 317 321 323 326 329 331 334 338 340 340 339 337 337 339 342 343 342 340 339 340 341 343 343 345 345 344 346 347 347 348 350 351 351 350 351 351 350 349
205 210 213 209 201 198 197 197 205 211 211 212 213 209 208 216 219 220 226 233 239 245 249 256 265 269 267 266 264 264 262 261 264 273 281 285 284 282 280 280 282 283 285 287 288 292 297 301 307 312 317 321 325 328 331 335 338 341 341 340 339 339 340 340 341 341 340 339 340 342 343 343 343 343 343 343 344 345 345 347 350 351 351 352 352 351 350 349
206 212 214 209 200 196 197 198 202 206 204 201 200 202 210 218 217 218 230 237 243 249 257 267 271 267 262 261 259 255 253 256 265 274 277 278 277 276 277 277 277 279 281 284 287 292 298 303 308 311 315 320 326 331 334 337 338 339 339 339 340 340 340 338 338 339 340 341 342 343 342 342 342 341 341 341 342 343 345 348 350 351 351 352 352 351 350 351
207 211 213 210 201 195 195 194 194 193 190 190 198 210 223 229 225 226 235 241 246 255 266 270 266 260 259 257 251 247 249 257 266 269 270 272 272 273 274 275 275 277 279 281 286 293 299 305 309 311 315 320 326 333 338 339 339 339 339 340 341 340 339 338 337 339 341 342 342 343 341 341 340 339 339 339 341 343 345 348 349 351 351 351 351 352 352 353
206 210 211 208 203 200 197 191 187 187 189 196 208 220 237 245 240 239 242 247 254 264 268 264 257 257 254 246 242 243 249 259 263 264 266 268 270 270 273 275 277 279 281 285 291 298 301 304 307 311 316 322 329 336 338 338 338 338 339 339 339 340 341 340 339 340 342 342 342 341 340 340 338 336 336 338 340 343 346 348 349 350 350 350 352 353 354 355
205 207 209 207 203 204 200 193 191 194 199 207 217 231 246 248 245 248 251 256 264 267 262 254 253 250 241 236 238 243 251 257 258 260 263 265 267 270 274 278 279 281 285 289 295 299 300 301 305 310 316 321 327 332 334 336 337 337 337 338 340 341 342 341 341 341 342 343 342 340 339 338 335 333 335 338 341 344 346 348 349 349 350 351 353 354 355 356
203 204 207 206 204 204 202 198 199 203 207 214 225 238 243 243 248 252 256 263 267 260 248 245 246 239 233 234 239 243 250 253 254 257 260 264 269 273 277 279 281 284 288 293 296 298 298 299 301 306 314 320 323 327 332 336 337 337 338 339 340 341 343 343 343 342 342 343 342 339 337 337 335 335 337 340 343 345 346 347 348 350 351 352 354 355 356 356
202 202 204 204 203 202 201 200 202 207 213 222 233 239 240 244 249 255 261 265 259 247 241 241 236 230 230 236 241 245 249 250 252 255 258 264 271 276 280 281 283 286 288 292 295 295 295 297 300 305 311 315 318 323 329 334 336 337 339 339 340 342 344 344 343 342 342 342 341 339 337 338 339 338 339 342 344 344 345 346 348 351 352 353 354 355 356 356
201 200 202 203 202 201 202 204 208 214 221 229 235 239 241 245 251 257 261 256 246 241 240 235 228 226 228 235 243 246 247 248 250 254 259 265 272 277 280 283 286 289 290 291 293 294 296 299 302 305 310 315 319 322 327 332 336 338 340 341 341 343 344 344 343 342 341 341 341 341 339 339 341 341 341 344 344 344 345 347 350 352 353 354 354 355 355 355
200 199 200 203 204 204 206 210 214 220 225 232 236 238 242 248 254 254 248 240 240 239 236 229 225 225 228 236 243 247 248 249 252 257 262 266 270 273 276 282 288 291 291 293 295 297 299 302 304 306 311 317 322 324 328 331 335 338 341 341 341 341 342 343 343 342 340 340 341 343 342 341 343 344 343 344 346 346 348 349 350 352 353 353 354 354 354 355
198 197 199 203 206 208 211 215 219 223 228 233 236 240 244 247 246 240 236 237 237 234 230 227 225 228 233 238 243 247 249 251 255 260 262 265 267 272 278 284 288 288 291 295 300 302 304 307 310 312 315 318 322 326 329 332 335 338 340 340 339 340 341 342 343 342 341 341 342 344 344 344 345 345 344 345 346 348 348 349 350 351 352 352 353 354 354 355
195 194 197 201 205 210 214 218 222 225 229 233 237 239 240 236 231 231 234 234 230 227 227 226 227 232 238 242 245 249 251 254 257 260 262 266 270 275 280 283 284 286 290 296 301 305 309 312 315 316 317 319 322 326 329 331 334 336 338 339 339 339 339 341 343 344 343 341 342 344 346 345 345 345 344 345 347 348 348 348 350 351 351 351 352 354 355 356
192 192 194 197 202 208 213 216 220 224 226 229 230 228 226 225 227 230 230 226 223 223 224 227 233 237 241 245 248 252 255 257 259 261 263 267 271 275 278 281 284 288 292 297 302 306 310 312 314 315 316 319 321 323 326 328 330 333 335 337 337 337 338 339 341 344 344 342 340 343 345 344 344 344 344 345 347 348 348 348 350 350 350 351 352 354 355 356
190 190 191 193 197 202 207 210 213 214 215 216 216 217 220 225 227 226 223 220 219 220 224 230 236 240 244 248 251 254 257 260 261 262 264 267 271 275 279 284 288 292 296 299 303 306 309 311 311 313 315 318 320 321 324 326 329 332 334 337 339 339 339 340 342 344 345 342 339 341 344 344 344 345 345 346 347 347 348 348 349 349 350 352 353 353 354 355
186 186 187 189 192 195 198 200 201 203 205 207 210 216 221 224 223 220 218 216 216 221 227 233 239 243 247 250 253 257 259 262 263 263 266 269 273 277 281 285 289 294 298 301 304 307 309 311 313 314 317 319 321 322 324 326 328 331 334 338 340 340 341 342 342 343 343 342 339 339 343 344 344 345 345 346 347 347 348 348 348 350 350 351 352 352 353 355
181 181 182 183 186 189 192 194 196 200 204 207 211 217 220 220 218 215 214 214 217 223 230 236 241 245 249 252 255 259 262 264 266 267 270 273 277 280 284 288 292 295 298 301 305 308 311 313 314 316 318 320 322 324 324 326 329 332 335 337 338 339 340 340 341 341 341 342 340 338 342 344 343 344 344 345 346 347 347 348 348 349 350 350 350 351 352 354
179 179 180 183 187 190 193 195 197 201 206 210 213 216 215 214 214 213 214 217 221 226 233 238 243 246 250 254 257 262 266 268 270 272 275 278 280 283 286 290 294 297 300 302 306 308 311 314 315 317 319 321 323 324 325 327 329 332 333 335 337 339 339 338 339 340 340 342 341 338 339 343 343 343 344 345 347 348 347 348 348 348 349 350 349 350 352 354
180 182 184 187 190 192 195 197 201 206 209 211 212 212 212 212 212 214 217 222 226 231 236 240 245 248 253 258 262 266 269 272 274 276 279 282 284 286 289 292 295 298 301 303 306 308 311 313 315 317 319 321 322 323 325 327 328 330 332 334 336 337 337 337 337 339 339 341 342 338 337 341 343 343 344 345 346 347 347 347 347 348 349 349 349 349 351 353
184 186 188 191 193 195 197 201 206 209 209 209 210 211 212 212 214 217 222 226 230 234 239 242 246 251 256 261 266 269 272 274 277 280 283 286 287 289 291 293 295 298 301 303 306 308 310 313 315 316 318 320 321 322 324 325 326 329 331 332 333 334 336 337 337 338 338 339 341 339 337 339 342 343 343 344 345 346 346 346 347 348 349 349 348 349 351 352
189 191 193 196 198 199 202 206 208 208 207 208 210 211 213 214 218 223 226 229 233 237 242 245 249 254 259 264 268 271 274 276 279 282 284 286 288 289 291 293 295 298 301 303 305 307 310 312 314 316 317 319 321 322 323 325 326 327 329 330 331 332 334 336 336 336 336 337 339 339 338 339 341 342 342 343 344 346 346 347 348 348 348 348 348 349 350 351
195 198 200 203 203 204 206 207 207 206 207 209 212 213 215 218 222 227 229 232 236 240 244 248 253 257 261 265 269 273 275 277 280 282 284 286 288 289 291 293 295 298 301 304 305 307 309 312 314 315 317 319 321 322 323 325 326 326 327 328 329 331 333 335 336 335 335 336 339 339 338 338 339 340 341 342 343 345 346 347 347 347 347 347 347 348 349 350
203 205 206 206 206 206 207 206 206 207 209 212 214 216 219 222 226 230 233 235 238 242 246 251 255 259 263 266 270 273 276 278 280 282 284 285 287 289 291 293 296 298 301 303 305 307 309 311 313 315 317 318 320 322 322 324 324 325 325 327 328 330 332 333 335 335 335 336 338 339 337 337 338 339 341 341 343 345 346 346 347 347 346 346 346 347 348 349
210 210 210 207 206 205 205 205 207 210 213 215 217 220 224 227 231 233 235 238 241 245 250 254 258 261 265 268 271 275 277 279 281 283 285 287 288 290 292 294 296 298 300 302 304 306 308 310 312 314 316 317 318 320 320 321 322 324 324 326 327 329 330 332 334 335 336 335 336 338 337 336 338 339 340 341 342 344 345 346 346 345 345 345 346 347 348 348
215 213 210 207 205 205 207 209 211 214 216 218 220 223 227 231 234 237 238 240 244 248 253 257 260 264 267 271 274 276 278 280 283 285 287 289 290 291 293 294 296 298 300 302 304 306 308 309 311 312 314 314 315 317 318 319 321 322 324 325 326 328 330 332 333 335 336 335 334 336 338 337 337 338 339 340 341 343 344 345 344 344 344 345 346 347 347 347
216 213 210 207 207 207 209 213 216 218 220 222 224 227 231 235 237 239 241 244 248 252 256 259 263 267 270 274 277 279 281 283 285 287 289 291 292 293 294 296 297 299 301 303 305 307 308 309 310 312 313 314 315 317 318 320 322 323 324 325 326 328 329 331 333 334 335 335 334 335 337 337 336 336 338 339 340 342 343 343 343 343 344 345 345 346 346 347
214 211 208 208 209 211 214 217 220 223 224 226 229 232 235 239 241 243 245 248 252 256 259 262 265 270 273 277 280 281 283 285 287 289 291 292 293 294 296 297 299 300 302 303 305 307 308 310 311 312 314 316 317 318 320 321 322 323 325 326 327 328 329 331 333 333 334 335 335 334 335 336 336 335 337 338 339 341 342 342 342 343 344 344 344 345 345 346
213 210 209 210 213 215 219 222 225 227 229 231 234 237 240 243 245 247 250 253 256 259 262 265 268 272 276 279 281 283 285 287 289 291 292 293 294 295 296 297 299 300 302 304 305 306 308 309 311 312 314 316 317 318 319 321 322 323 325 326 327 327 328 330 332 332 333 334 335 334 334 335 335 335 336 338 339 340 341 342 342 343 343 343 344 344 344 345
213 212 212 214 216 219 223 227 229 231 233 236 239 242 245 248 250 252 254 257 260 262 265 268 271 275 278 280 283 285 287 288 290 291 293 294 295 296 296 297 298 300 302 303 304 306 307 308 310 312 313 315 316 318 319 320 321 323 324 325 326 327 328 329 330 331 332 333 334 334 334 334 334 334 335 337 339 340 341 342 342 343 343 343 343 343 344 345
214 215 216 218 220 223 227 230 233 235 237 240 243 246 249 252 254 255 258 260 263 266 269 271 274 277 280 282 284 286 287 289 290 292 293 294 295 296 297 298 299 300 301 302 303 305 306 308 310 311 313 314 316 317 319 320 321 322 323 324 325 326 327 327 329 330 331 332 333 333 333 333 333 333 335 337 339 340 341 342 342 342 343 343 343 342 343 345
217 218 219 221 224 227 230 234 237 239 241 244 247 250 252 255 257 259 261 264 267 270 272 275 277 279 282 284 285 287 288 290 291 292 293 294 295 296 297 298 299 300 301 302 303 305 306 307 309 311 312 314 316 317 318 319 320 321 322 323 325 326 325 326 328 330 331 332 332 332 332 332 331 333 335 337 339 340 341 342 342 342 342 342 342 342 343 344
221 222 224 226 228 231 235 237 240 243 246 248 251 253 256 258 260 263 265 267 270 273 275 277 280 281 283 285 287 288 289 291 292 293 294 295 295 296 296 298 299 300 301 302 303 305 306 308 309 311 312 313 315 316 317 318 319 320 321 323 324 324 325 325 327 329 330 331 331 331 331 331 332 334 336 336 338 340 341 342 342 341 342 342 341 342 342 344
225 226 228 230 233 236 238 241 244 247 250 253 255 258 260 262 264 266 268 270 273 275 278 280 282 283 285 286 288 289 290 292 293 293 294 294 295 296 297 298 299 300 301 302 304 305 307 308 309 311 312 313 314 316 316 317 318 319 320 321 322 324 325 326 327 329 330 330 330 330 330 331 332 334 336 336 338 340 341 341 341 341 341 341 341 341 341 343